• In Belarus
  • List of Countries
  • For 7 days
  • Water Temperature
  • Satellite Maps
  • Weather Map
  • Weather Widgets
  • user-avatar
    Login

    Hourly Weather Achaea

    Today, 19 November, Monday

    Time Temperature Precipitation Wind Pressure Humidity
    00:00 +9°C° 0.1 mm 2 mps 679 mmHg 91%
    01:00 +9°C° 0 mm 2 mps 680 mmHg 91%
    02:00 +9°C° 0.2 mm 2 mps 680 mmHg 93%
    03:00 +10°C° 0.2 mm 2 mps 680 mmHg 94%
    04:00 +10°C° 0.2 mm 2 mps 680 mmHg 95%
    05:00 +9°C° 0.1 mm 2 mps 680 mmHg 95%
    06:00 +9°C° 0.1 mm 2 mps 681 mmHg 94%
    07:00 +10°C° 0.1 mm 1 mps 681 mmHg 94%
    08:00 +11°C° 0 mm 1 mps 682 mmHg 88%
    09:00 +12°C° 0 mm 1 mps 683 mmHg 82%
    10:00 +13°C° 0 mm 1 mps 683 mmHg 76%
    11:00 +13°C° 0 mm 1 mps 683 mmHg 73%
    12:00 +14°C° 0 mm 2 mps 684 mmHg 69%
    13:00 +14°C° 0 mm 2 mps 684 mmHg 66%
    14:00 +13°C° 0 mm 2 mps 684 mmHg 70%
    15:00 +13°C° 0 mm 2 mps 684 mmHg 73%
    16:00 +12°C° 0 mm 1 mps 683 mmHg 77%
    17:00 +11°C° 0 mm 1 mps 684 mmHg 80%
    18:00 +10°C° 0 mm 2 mps 684 mmHg 82%
    19:00 +9°C° 0 mm 2 mps 684 mmHg 84%
    20:00 +9°C° 0 mm 2 mps 684 mmHg 83%
    21:00 +9°C° 0 mm 2 mps 684 mmHg 81%
    22:00 +9°C° 0 mm 2 mps 685 mmHg 80%
    23:00 +9°C° 0 mm 2 mps 685 mmHg 77%

    Tomorrow, 20 November, Tuesday

    Time Temperature Precipitation Wind Pressure Humidity
    00:00 +9°C° 0 mm 2 mps 685 mmHg 75%
    01:00 +9°C° 0 mm 2 mps 685 mmHg 73%
    02:00 +9°C° 0 mm 2 mps 685 mmHg 71%
    03:00 +9°C° 0 mm 2 mps 685 mmHg 70%
    04:00 +9°C° 0 mm 2 mps 684 mmHg 69%
    05:00 +9°C° 0 mm 2 mps 685 mmHg 69%
    06:00 +9°C° 0 mm 2 mps 685 mmHg 69%
    07:00 +9°C° 0 mm 2 mps 685 mmHg 70%
    08:00 +11°C° 0 mm 3 mps 685 mmHg 66%
    09:00 +13°C° 0 mm 3 mps 686 mmHg 62%
    10:00 +16°C° 0 mm 3 mps 686 mmHg 58%
    11:00 +16°C° 0 mm 3 mps 686 mmHg 61%
    12:00 +16°C° 0 mm 3 mps 685 mmHg 63%
    13:00 +16°C° 0 mm 3 mps 685 mmHg 65%
    14:00 +14°C° 0.2 mm 3 mps 685 mmHg 68%
    15:00 +13°C° 0.2 mm 3 mps 684 mmHg 72%
    16:00 +13°C° 0.2 mm 2 mps 684 mmHg 76%
    17:00 +13°C° 0 mm 2 mps 684 mmHg 76%
    18:00 +12°C° 0 mm 2 mps 684 mmHg 76%
    19:00 +12°C° 0 mm 2 mps 683 mmHg 77%
    20:00 +10°C° 0 mm 2 mps 683 mmHg 76%
    21:00 +10°C° 0 mm 2 mps 683 mmHg 76%
    22:00 +10°C° 0 mm 3 mps 683 mmHg 75%
    23:00 +10°C° 0.4 mm 3 mps 683 mmHg 76%

    Day after tomorrow, 21 November, Wednesday

    Time Temperature Precipitation Wind Pressure Humidity
    00:00 +10°C° 0.4 mm 3 mps 683 mmHg 77%
    01:00 +10°C° 0.4 mm 3 mps 682 mmHg 78%
    02:00 +10°C° 1.2 mm 3 mps 682 mmHg 82%
    03:00 +10°C° 1.2 mm 2 mps 682 mmHg 85%
    04:00 +9°C° 1.2 mm 2 mps 681 mmHg 89%
    05:00 +9°C° 0.6 mm 2 mps 682 mmHg 90%
    06:00 +10°C° 0.6 mm 2 mps 682 mmHg 91%
    07:00 +10°C° 0.6 mm 3 mps 682 mmHg 92%
    08:00 +11°C° 0.3 mm 3 mps 682 mmHg 87%
    09:00 +12°C° 0.3 mm 3 mps 683 mmHg 82%
    10:00 +13°C° 0.3 mm 3 mps 683 mmHg 77%
    11:00 +13°C° 0.3 mm 3 mps 683 mmHg 74%
    12:00 +13°C° 0.3 mm 3 mps 683 mmHg 72%
    13:00 +14°C° 0.3 mm 3 mps 683 mmHg 69%
    14:00 +13°C° 0.3 mm 3 mps 683 mmHg 73%
    15:00 +12°C° 0.3 mm 3 mps 683 mmHg 78%
    16:00 +12°C° 0.3 mm 2 mps 683 mmHg 82%
    17:00 +12°C° 0.2 mm 2 mps 683 mmHg 84%
    18:00 +10°C° 0.2 mm 2 mps 683 mmHg 87%
    19:00 +10°C° 0.2 mm 2 mps 683 mmHg 89%
    20:00 +9°C° 0 mm 2 mps 684 mmHg 90%
    21:00 +9°C° 0 mm 2 mps 684 mmHg 91%
    22:00 +9°C° 0 mm 2 mps 684 mmHg 92%
    23:00 +9°C° 0.1 mm 2 mps 684 mmHg 91%

    22 November, Thursday

    Time Temperature Precipitation Wind Pressure Humidity
    00:00 +9°C° 0.1 mm 2 mps 684 mmHg 91%
    01:00 +9°C° 0.1 mm 2 mps 684 mmHg 91%
    02:00 +10°C° 0 mm 1 mps 684 mmHg 92%
    03:00 +10°C° 0 mm 1 mps 685 mmHg 93%
    04:00 +10°C° 0 mm 1 mps 685 mmHg 93%
    05:00 +10°C° 0 mm 1 mps 685 mmHg 93%
    06:00 +10°C° 0 mm 1 mps 685 mmHg 93%
    07:00 +10°C° 0 mm 1 mps 686 mmHg 93%
    08:00 +11°C° 0 mm 1 mps 686 mmHg 87%
    09:00 +12°C° 0 mm 1 mps 687 mmHg 82%
    10:00 +13°C° 0 mm 1 mps 687 mmHg 76%
    11:00 +13°C° 0.1 mm 1 mps 687 mmHg 75%
    12:00 +13°C° 0.1 mm 2 mps 687 mmHg 74%
    13:00 +14°C° 0.1 mm 2 mps 687 mmHg 74%
    14:00 +13°C° 0.3 mm 2 mps 687 mmHg 78%
    15:00 +12°C° 0.3 mm 2 mps 687 mmHg 82%
    16:00 +12°C° 0.3 mm 2 mps 687 mmHg 86%
    17:00 +11°C° 0.3 mm 1 mps 687 mmHg 88%
    18:00 +11°C° 0.3 mm 1 mps 687 mmHg 90%
    19:00 +10°C° 0.3 mm 1 mps 687 mmHg 92%
    20:00 +10°C° 0.1 mm 1 mps 688 mmHg 92%
    21:00 +10°C° 0.1 mm 1 mps 688 mmHg 93%
    22:00 +10°C° 0.1 mm 1 mps 688 mmHg 93%
    23:00 +10°C° 0 mm 1 mps 688 mmHg 93%

    23 November, Friday

    Time Temperature Precipitation Wind Pressure Humidity
    00:00 +9°C° 0 mm 1 mps 688 mmHg 93%
    01:00 +9°C° 0 mm 1 mps 688 mmHg 93%
    02:00 +9°C° 0 mm 1 mps 688 mmHg 93%
    03:00 +9°C° 0 mm 1 mps 688 mmHg 93%
    04:00 +9°C° 0 mm 1 mps 688 mmHg 93%
    05:00 +8°C° 0 mm 1 mps 689 mmHg 92%
    06:00 +8°C° 0 mm 1 mps 689 mmHg 92%
    07:00 +8°C° 0 mm 1 mps 689 mmHg 91%
    08:00 +9°C° 0 mm 1 mps 690 mmHg 85%
    09:00 +11°C° 0 mm 1 mps 690 mmHg 79%
    10:00 +12°C° 0 mm 2 mps 691 mmHg 72%
    11:00 +12°C° 0 mm 2 mps 691 mmHg 71%
    12:00 +12°C° 0 mm 2 mps 690 mmHg 69%
    13:00 +12°C° 0 mm 2 mps 690 mmHg 67%
    14:00 +10°C° 0 mm 2 mps 690 mmHg 70%
    15:00 +10°C° 0 mm 2 mps 690 mmHg 73%
    16:00 +9°C° 0 mm 2 mps 690 mmHg 76%
    17:00 +8°C° 0 mm 2 mps 691 mmHg 78%
    18:00 +7°C° 0 mm 2 mps 691 mmHg 80%
    19:00 +7°C° 0 mm 2 mps 691 mmHg 82%
    20:00 +6°C° 0 mm 2 mps 691 mmHg 82%
    21:00 +6°C° 0 mm 2 mps 691 mmHg 82%
    22:00 +6°C° 0 mm 2 mps 691 mmHg 82%
    23:00 +5°C° 0 mm 2 mps 691 mmHg 82%

    24 November, Saturday

    Time Temperature Precipitation Wind Pressure Humidity
    00:00 +5°C° 0 mm 2 mps 691 mmHg 82%
    01:00 +5°C° 0 mm 2 mps 691 mmHg 82%
    02:00 +4°C° 0 mm 2 mps 691 mmHg 82%
    03:00 +4°C° 0 mm 2 mps 690 mmHg 83%
    04:00 +4°C° 0 mm 2 mps 690 mmHg 83%
    05:00 +4°C° 0 mm 2 mps 691 mmHg 83%
    06:00 +4°C° 0 mm 2 mps 691 mmHg 83%
    07:00 +4°C° 0 mm 2 mps 691 mmHg 83%
    08:00 +5°C° 0 mm 2 mps 691 mmHg 77%
    09:00 +7°C° 0 mm 2 mps 692 mmHg 71%
    10:00 +8°C° 0 mm 2 mps 692 mmHg 65%
    11:00 +9°C° 0 mm 2 mps 692 mmHg 62%
    12:00 +10°C° 0 mm 2 mps 692 mmHg 59%
    13:00 +10°C° 0 mm 2 mps 692 mmHg 56%
    14:00 +9°C° 0 mm 2 mps 691 mmHg 60%
    15:00 +8°C° 0 mm 2 mps 691 mmHg 64%
    16:00 +8°C° 0 mm 1 mps 691 mmHg 68%
    17:00 +7°C° 0 mm 2 mps 691 mmHg 71%
    18:00 +6°C° 0 mm 2 mps 691 mmHg 74%
    19:00 +5°C° 0 mm 2 mps 691 mmHg 77%
    20:00 +5°C° 0 mm 2 mps 691 mmHg 78%
    21:00 +4°C° 0 mm 2 mps 691 mmHg 78%
    22:00 +4°C° 0 mm 2 mps 690 mmHg 79%
    23:00 +5°C° 0 mm 1 mps 690 mmHg 78%
    Show more